Regional Weather Roundup
Issued by NWS

Home | Current Version | Previous Version | Text Only | Print | Product List | Glossary Off
Versions: 1 2 3 4 5 6 7 8 9 10 11 12 13 14 15 16 17 18 19 20 21 22 23 24 25 26 27 28 29 30 31 32 33 34 35 36 37 38 39 40 41 42 43 44 45 46 47 48 49 50

000
ASUS43 KFSD 270402
RWRSD

WEATHER ROUNDUP FOR SOUTH DAKOTA
NATIONAL WEATHER SERVICE SIOUX FALLS SD
1100 PM CDT THU APR 26 2018

NOTE: "FAIR" INDICATES FEW OR NO CLOUDS BELOW 12,000 FEET WITH NO
SIGNIFICANT WEATHER AND/OR OBSTRUCTIONS TO VISIBILITY.


SDZ001>005-009-010-012>017-270500-
NORTHWEST AND NORTH CENTRAL SOUTH DAKOTA

CITY           SKY/WX    TMP DP  RH WIND       PRES   REMARKS
BUFFALO          N/A     47  32  56 W7        30.02S
FAITH            N/A     48  34  58 W7        30.06S
MOBRIDGE       CLEAR     47  32  56 CALM      29.97S
$$

SDZ012>016-024>037-041>051-057-063-072>074-270500-
SOUTHWEST AND SOUTH CENTRAL SOUTH DAKOTA

CITY           SKY/WX    TMP DP  RH WIND       PRES   REMARKS
RAPID CTY ARPT CLEAR     45  31  58 VRB6      30.11S
PIERRE         CLEAR     52  29  41 SW10      30.02F
CUSTER         CLEAR     40  23  50 NW6       30.17F
ELLSWORTH AFB  CLEAR     51  32  49 SW7       30.11R
PHILIP         CLEAR     47  33  58 W10       30.07S
PINE RIDGE     CLEAR     42  34  73 CALM      30.13S
SPEARFISH      FAIR      48  30  49 W9        30.13S
WINNER         FAIR      50  30  46 SW8       30.07F
$$

SDZ004>011-016>023-039-040-270500-
NORTHEAST SOUTH DAKOTA

CITY           SKY/WX    TMP DP  RH WIND       PRES   REMARKS
ABERDEEN       CLEAR     37  26  64 SW8       29.97F
WATERTOWN      CLEAR     41  32  70 S5        29.99F
BROOKINGS      CLEAR     44  33  65 E5        30.03R
SISSETON         N/A     45  33  63 S14       29.93F
$$

SDZ017-020-022-023-036>040-048>070-270500-
SOUTHEAST SOUTH DAKOTA

CITY           SKY/WX    TMP DP  RH WIND       PRES   REMARKS
SIOUX FALLS    CLEAR     42  32  67 CALM      30.03S
HURON          CLEAR     46  33  60 SW7       30.00F
CHAMBERLAIN    CLEAR     47  32  55 SW5       30.05S
MITCHELL       CLEAR     49  34  56 SW8       30.03F
YANKTON        CLEAR     45  33  63 SW6       30.05S
$$

ABBREVIATIONS USED IN REMARKS
   TC - TEMPERATURE IN CELSIUS
  WCI - WIND CHILL INDEX
   HX - HEAT INDEX
  VSB - VISIBILITY





USA.gov is the U.S. government's official web portal to all federal, state and local government web resources and services.